Lapse_Rate
6.9 6.5 6.5 6.5 6.5 6.5 6.5 6.5 6.5 6.5 6.5 6.5 6.5 6.5 6.5 6.9 7.0 7.0 7.1 6.5 5.4 3.8 2.7 1.2 0.2 1.1 1.0 2.3 3.5 2.4 1.9 0.6 -1.6 -1.0 0.1 1.1 1.9 0.5 -0.1 0.6 1.2 2.0 2.3 1.9
6.5 6.5 6.5 6.5 6.5 6.5 6.5 6.5 6.5 6.5 6.5 6.5 6.5 6.5 6.5 6.6 6.8 7.1 7.1 7.0 5.4 3.9 2.8 1.0 -0.0 0.1 0.2 1.0 2.6 3.2 1.6 1.2 0.4 0.3 1.4 1.6 2.3 1.0 -0.9 0.6 1.2 2.0 2.0 2.2
6.5 6.5 6.6 6.5 6.5 6.5 6.5 6.5 6.5 6.5 6.5 6.5 6.5 6.5 6.5 6.5 6.9 7.1 7.2 6.4 6.4 5.1 3.8 2.7 0.7 1.6 2.1 1.7 1.9 1.6 1.2 0.8 1.1 0.8 0.8 0.7 0.8 0.4 0.5 0.3 1.1 1.1 2.2 2.7
6.5 6.6 6.5 6.5 6.5 6.5 6.5 6.5 6.5 6.5 6.5 6.5 6.5 6.5 6.5 6.5 6.5 6.6 7.1 7.1 5.9 4.6 4.3 2.4 2.0 2.4 2.7 2.4 1.9 2.3 2.3 2.2 2.9 3.1 1.9 1.6 1.7 2.2 2.2 1.6 0.8 1.2 1.7 2.3
6.5 6.5 6.5 6.5 6.5 6.5 6.5 6.5 6.5 6.5 6.5 6.5 6.5 6.5 6.5 6.5 6.5 6.5 6.8 7.1 6.0 4.5 3.4 2.7 1.9 2.5 2.9 3.8 3.5 3.0 3.3 3.6 3.2 3.9 4.2 3.6 2.0 1.6 2.3 -0.2 0.5 0.2 0.4 0.7
6.5 6.8 6.5 6.5 6.5 6.5 6.5 6.5 6.5 6.5 6.5 6.5 6.5 6.5 6.5 6.5 6.5 6.5 6.8 7.1 5.6 5.2 4.5 3.8 2.8 2.9 3.5 4.2 4.4 4.0 3.6 4.3 4.1 3.8 3.2 2.8 2.2 0.8 2.9 2.0 1.6 2.3 2.1 3.5
6.5 6.5 6.5 6.7 6.5 6.5 6.5 6.5 6.5 6.5 6.5 6.5 6.5 6.5 6.5 6.5 6.5 6.6 6.7 7.0 5.6 4.8 4.5 4.3 4.3 4.1 3.8 4.2 4.4 4.5 4.7 4.6 4.0 3.7 3.5 3.6 3.9 3.6 4.2 4.2 4.3 4.2 4.2 4.2
6.5 6.5 6.5 6.5 6.5 6.5 6.5 6.5 6.5 6.5 6.5 6.5 6.5 6.5 6.5 6.5 6.9 7.1 7.0 6.3 5.6 5.3 4.4 4.3 3.7 3.3 3.5 3.5 4.1 4.4 4.5 4.6 3.5 3.5 4.0 4.0 4.4 5.0 5.3 5.3 5.2 5.2 5.3 5.3
6.5 6.5 6.5 6.5 6.5 6.5 6.5 6.5 6.5 6.5 6.5 6.5 6.5 6.5 6.5 6.5 6.5 6.8 7.0 6.7 6.4 6.2 5.0 4.6 4.2 3.6 3.3 3.5 3.5 3.4 3.7 4.0 3.8 4.2 4.4 4.5 4.5 4.5 5.1 4.8 4.7 5.1 4.9 5.0
6.5 6.5 6.5 6.5 6.6 6.5 6.5 6.5 6.5 6.5 6.5 6.5 6.5 6.5 6.5 6.5 6.5 6.5 6.6 6.9 6.4 5.6 5.2 5.0 4.9 4.6 4.2 3.6 3.6 2.9 2.7 3.9 4.6 4.2 4.0 4.1 4.3 4.2 4.4 4.3 4.6 4.6 4.8 4.5
6.5 6.5 6.5 6.5 6.5 6.5 6.5 6.5 6.5 6.5 6.5 6.5 6.5 6.5 6.5 6.5 6.5 6.5 6.7 6.9 6.3 6.0 6.1 6.0 5.7 5.3 4.7 3.8 3.4 3.1 2.7 3.5 3.7 3.2 3.1 3.3 3.7 3.7 3.8 4.2 4.5 4.7 4.6 4.4
6.5 6.5 6.5 6.5 6.5 6.5 6.5 6.5 6.5 6.5 6.5 6.5 6.5 6.5 6.5 6.5 6.6 6.8 7.0 7.0 6.1 5.8 6.3 6.0 5.8 5.6 4.7 4.5 4.2 3.5 3.0 3.3 3.4 3.4 3.3 2.9 3.2 3.6 4.0 4.0 3.9 3.7 4.6 4.5
6.5 6.5 6.5 6.5 6.5 6.5 6.5 6.5 6.5 6.5 6.5 6.5 6.5 6.5 6.5 6.7 6.7 7.0 7.0 7.0 6.3 5.8 5.7 5.4 4.7 4.6 4.4 4.9 4.7 3.9 3.1 3.1 2.8 3.0 3.5 2.8 2.9 3.5 3.8 3.8 3.7 3.6 3.8 4.3
6.2 6.5 6.5 6.5 6.5 6.5 6.5 6.5 6.5 6.5 6.5 6.5 6.5 6.5 6.5 6.5 6.5 6.8 7.0 7.2 6.7 6.0 6.0 5.7 5.4 5.2 4.5 4.1 3.6 3.0 3.3 2.5 2.7 2.8 3.1 3.1 3.0 3.0 3.4 3.5 3.5 3.4 3.6 4.2
6.5 6.5 6.5 6.5 6.5 6.5 6.5 6.5 6.5 6.5 6.5 6.5 6.5 6.5 6.5 6.5 6.5 6.8 7.1 6.4 5.7 5.5 5.5 5.6 5.0 4.2 3.5 3.0 2.4 2.5 2.8 2.4 2.3 2.4 2.5 1.9 1.6 1.8 1.9 2.6 3.0 3.3 3.6 4.4
6.5 6.5 6.5 6.5 6.5 6.5 6.5 6.5 6.5 6.5 6.5 6.5 6.5 6.5 6.5 6.8 7.0 6.9 6.8 6.3 6.2 5.4 5.2 4.0 2.8 2.2 1.9 1.9 2.9 3.0 2.8 2.3 2.5 2.9 2.6 2.0 1.7 1.5 1.7 2.4 2.8 3.1 3.2 3.7
6.5 6.5 6.5 6.5 6.5 6.5 6.5 6.5 6.5 6.5 6.5 6.5 6.5 6.5 6.5 6.5 6.6 6.9 7.0 6.0 5.6 4.9 3.7 3.3 2.6 1.8 1.7 2.1 2.4 2.8 2.1 1.6 2.0 2.2 1.5 1.1 1.2 1.2 1.2 1.5 1.8 1.5 2.1 3.0
6.5 6.5 6.5 6.5 6.5 6.5 6.5 6.5 6.5 6.5 6.5 6.5 6.5 6.5 6.5 6.7 6.9 6.4 5.6 5.7 4.6 4.0 4.2 3.7 3.4 2.8 1.4 2.1 1.0 -0.0 -0.4 -0.8 -1.1 -1.4 -1.4 -1.7 -0.5 -0.9 0.1 0.9 -0.2 0.9 1.4 1.5
6.5 6.5 6.5 6.5 6.5 6.5 6.5 6.5 6.5 6.5 6.5 6.5 6.5 6.5 6.7 6.6 6.3 6.7 4.4 4.7 5.3 4.9 4.7 4.2 3.8 3.0 2.6 1.8 0.3 -0.1 -1.5 -1.7 -1.2 -1.6 -1.4 -2.1 -1.9 -1.2 -0.1 1.2 2.2 3.1 3.0 2.7
6.5 6.5 6.5 6.5 6.5 6.5 6.5 6.5 6.8 6.5 6.5 6.5 6.6 6.5 6.6 6.9 6.5 6.5 5.1 4.1 4.3 4.2 4.0 3.6 2.6 2.0 2.4 1.2 0.6 -0.3 -1.0 -0.9 -0.6 -0.8 -0.6 -1.3 -1.2 0.6 2.8 3.7 3.3 3.6 3.5 2.4
6.5 6.5 6.5 6.5 6.5 6.5 6.5 6.6 6.5 6.5 6.5 6.6 6.6 6.5 6.9 6.5 6.4 5.6 3.9 3.8 3.7 3.8 3.2 3.0 2.5 2.5 0.0 0.6 -0.3 -0.6 -0.6 0.2 -0.4 -0.8 -0.5 -0.0 0.7 2.3 4.0 3.4 2.9 2.8 2.4 3.3
6.5 6.5 6.5 6.5 6.5 6.5 6.7 6.6 6.5 6.4 5.1 5.5 6.5 6.1 6.3 5.9 5.1 3.8 3.8 1.6 1.5 2.2 2.6 2.5 2.3 2.2 1.7 1.4 0.4 -0.3 0.0 -0.4 -0.5 -0.5 0.1 1.5 2.0 2.8 3.3 3.0 2.7 3.4 4.0 4.1
6.5 6.5 6.5 6.5 6.5 6.6 6.8 6.7 5.3 5.0 5.3 4.9 4.7 3.6 4.2 4.5 4.1 3.5 2.2 0.4 -0.5 1.3 3.0 2.6 3.0 3.1 2.4 2.4 2.6 2.3 2.1 0.8 0.1 0.2 0.9 1.5 1.9 2.4 2.7 3.4 3.4 3.9 3.8 4.7
6.5 6.6 6.5 6.5 6.5 6.5 6.6 6.1 5.5 4.9 5.3 4.4 4.1 4.0 3.4 2.7 0.8 -0.3 -0.7 -0.2 0.1 0.8 2.0 3.5 2.4 2.7 2.8 2.3 2.2 3.4 2.5 1.9 1.2 1.6 2.6 3.1 3.1 3.4 4.2 4.8 4.8 5.2 5.0 5.0
6.5 6.5 6.5 6.5 6.5 6.6 6.4 6.2 6.2 5.5 5.4 4.9 4.5 4.4 4.3 3.8 3.9 4.5 3.9 2.9 2.1 1.7 2.6 3.0 2.2 2.7 3.1 2.0 2.1 3.1 2.4 2.1 2.3 3.6 3.6 3.8 4.2 4.6 4.8 5.2 5.2 5.4 5.2 6.0
6.6 6.5 6.5 6.5 6.7 6.7 6.7 5.8 5.7 5.5 5.2 4.9 5.2 4.7 5.2 6.3 6.4 5.9 5.7 5.5 5.3 4.5 3.7 3.2 2.7 2.8 2.7 2.1 2.0 2.1 2.5 2.9 3.2 4.3 4.3 4.4 4.3 4.5 5.0 5.3 4.6 4.1 4.7 4.8
Wind_Speed
4 5 9 13 12 3 4 2 3 4 7 5 8 10 13 10 6 7 9 11 12 11 11 12 12 7 4 7 10 13 11 10 10 8 6 6 5 5 5 7 7 7 6 5
4 9 12 6 10 7 5 4 6 8 2 4 9 13 15 2 4 5 8 10 12 13 14 15 14 10 9 9 10 10 10 8 6 6 4 3 5 1 7 6 5 3 9 7
7 3 6 12 8 10 8 7 4 7 8 2 6 6 3 2 4 6 7 6 8 10 12 13 12 11 10 10 11 12 12 12 9 11 8 6 5 4 2 2 3 4 1 3
4 4 8 11 10 12 7 11 11 6 3 3 4 5 4 2 4 6 8 10 9 10 10 9 9 8 8 9 10 12 11 11 9 9 8 5 3 3 2 2 4 5 6 2
6 8 12 7 6 15 7 6 10 5 4 2 3 5 3 1 3 3 4 5 6 6 7 8 7 6 5 7 10 10 11 9 11 10 8 7 6 4 3 5 6 5 6 6
5 2 8 8 6 17 6 5 4 2 2 5 11 9 3 4 4 6 3 3 5 7 7 7 6 5 5 6 8 10 10 10 10 9 10 11 11 6 7 5 4 4 4 3
5 6 3 4 6 9 9 7 3 3 4 6 3 6 8 5 6 10 9 5 3 3 5 5 6 5 5 6 8 8 10 9 7 3 0 2 1 4 6 6 5 6 4 4
13 8 17 8 7 9 17 13 5 7 5 2 3 7 3 3 6 7 5 4 3 4 4 4 3 3 4 5 7 7 8 6 6 5 5 5 6 5 4 4 3 4 4 4
8 7 4 6 7 12 7 10 4 6 2 1 5 3 3 5 6 6 7 5 5 5 4 3 2 1 2 4 6 6 6 6 6 7 5 5 5 6 5 4 4 4 5 4
6 2 2 7 5 9 6 12 5 1 6 6 4 6 7 11 14 10 9 8 5 4 2 1 0 2 3 5 5 7 7 8 6 5 3 3 4 5 4 3 5 5 5 5
6 2 2 8 10 16 7 7 2 5 5 6 3 5 7 18 16 14 10 8 8 7 5 2 2 4 5 6 7 8 7 8 5 3 2 2 2 2 3 4 4 3 4 4
8 3 4 6 4 5 18 15 14 7 6 4 2 6 3 10 13 13 11 8 7 7 8 5 5 5 5 7 6 6 6 5 2 1 2 4 4 2 0 1 2 2 4 3
11 5 4 2 3 2 8 11 15 10 3 10 6 8 2 8 13 12 12 10 8 6 7 7 6 6 7 8 7 4 2 2 2 2 3 5 6 5 4 3 3 3 3 3
16 5 8 12 3 5 9 10 13 16 9 14 15 16 8 13 17 14 13 9 5 5 7 8 8 8 7 8 6 3 4 4 4 4 4 4 4 4 3 3 3 2 2 3
9 8 6 3 2 2 4 14 15 18 24 18 23 17 19 20 18 18 14 8 6 7 7 7 6 7 8 6 2 4 5 6 5 6 5 4 4 4 4 3 3 3 3 3
3 2 3 5 4 5 6 7 15 21 19 16 12 15 12 18 11 11 14 8 8 8 7 4 4 3 2 3 4 5 6 5 5 4 4 4 5 5 4 3 3 3 2 1
8 5 3 7 5 3 7 22 18 13 13 19 16 18 11 16 17 16 13 11 11 7 3 2 1 4 4 5 5 6 4 3 4 4 5 5 4 5 4 4 4 4 3 3
6 16 7 4 8 9 11 2 18 22 16 16 9 11 19 17 17 10 8 10 7 4 4 4 4 5 4 3 4 5 4 4 4 5 4 4 5 4 3 3 4 5 3 3
4 12 4 5 8 9 6 5 7 12 17 15 12 10 10 5 5 5 8 6 6 6 5 6 5 4 4 4 3 3 4 5 4 3 2 2 3 4 3 3 5 4 4 4
2 3 10 4 6 11 4 5 10 7 13 10 14 12 13 11 8 6 9 7 7 7 7 6 5 4 4 4 4 2 2 2 3 2 3 3 3 4 3 3 4 2 3 4
5 4 15 9 6 5 6 4 8 10 5 4 12 10 16 10 4 4 9 8 6 6 7 6 6 6 6 7 6 4 4 2 1 1 2 1 3 3 3 4 2 3 4 4
11 9 4 4 4 9 8 8 9 4 2 4 7 11 12 7 7 6 8 7 8 7 6 6 6 6 7 8 7 5 4 5 3 2 2 2 1 1 3 5 5 5 5 5
4 5 7 8 4 1 9 2 2 1 2 2 4 4 9 9 7 7 6 5 5 6 6 5 4 3 4 6 6 6 5 6 5 3 2 3 3 2 3 5 6 5 5 4
2 2 3 4 2 1 6 1 3 2 1 0 2 5 7 6 3 2 3 5 5 4 5 5 4 6 6 7 6 5 7 6 6 5 4 4 4 4 4 4 4 4 4 4
1 6 6 2 2 2 2 2 3 3 2 2 2 3 6 5 3 5 4 5 6 7 7 6 6 6 6 7 7 6 6 6 6 5 5 6 5 6 5 3 3 3 3 3
2 5 4 2 3 4 3 2 3 4 4 5 5 4 4 3 3 4 5 6 7 8 6 7 7 6 5 7 7 7 6 7 7 6 5 5 5 5 4 5 4 3 4 5
Wind_Direction
180 179 204 210 204 171 128 149 249 255 276 304 274 292 289 306 313 355 3 352 351 345 339 349 342 338 173 172 149 133 134 133 133 129 129 123 120 128 79 60 46 46 52 68
140 230 225 180 193 195 211 242 261 281 295 221 290 291 286 346 65 36 7 360 354 347 356 5 9 37 77 93 106 123 115 119 103 92 75 69 118 338 112 114 79 43 36 18
183 154 166 177 168 194 216 214 201 248 329 247 294 268 316 100 79 41 39 27 19 6 359 8 12 29 55 76 93 103 109 101 100 110 112 98 93 74 67 118 152 95 59 269
230 197 135 171 198 188 216 211 222 234 297 264 349 294 293 29 70 44 30 28 19 17 23 25 27 42 66 83 96 104 109 119 139 149 134 144 132 123 213 198 144 161 151 248
207 169 178 179 196 177 225 165 192 194 215 297 233 273 269 5 144 101 52 34 32 32 33 33 35 54 81 115 121 125 128 150 163 162 151 139 131 127 179 178 174 156 163 173
196 164 178 199 169 176 140 116 81 81 167 248 222 219 211 207 169 158 138 59 25 33 44 53 65 87 97 114 130 146 150 161 174 184 173 164 166 164 193 185 168 169 169 189
186 213 181 156 135 182 195 153 148 192 203 246 136 202 251 218 189 168 152 129 91 75 78 81 87 106 125 140 152 161 168 172 185 182 277 8 56 206 208 177 181 183 187 199
199 231 197 174 183 178 194 193 176 201 198 186 146 231 245 194 166 149 133 127 107 90 66 72 87 114 148 170 180 185 187 186 189 193 204 211 218 226 234 221 195 211 216 215
174 242 194 208 172 158 172 207 166 106 25 231 206 242 241 164 179 173 170 163 155 105 65 48 50 232 234 237 225 219 212 221 219 215 219 227 232 238 246 232 223 232 223 218
189 166 195 170 173 209 186 158 169 145 186 225 223 252 221 186 197 184 186 188 187 119 113 95 256 267 238 222 232 239 233 232 230 235 240 256 247 242 249 247 245 238 233 217
148 197 136 142 201 196 177 192 159 179 188 212 219 240 209 196 187 181 181 188 201 183 182 188 280 264 244 243 234 234 230 238 235 219 176 185 212 238 239 245 256 258 254 242
181 160 184 193 157 198 214 214 200 199 186 239 259 255 187 205 180 171 173 165 152 160 185 212 255 277 274 266 270 269 271 269 296 321 131 113 108 103 119 337 325 289 286 283
172 190 154 210 220 175 213 204 210 217 120 207 193 248 26 180 166 179 173 184 191 194 210 234 252 271 278 292 285 283 24 55 65 88 103 86 70 58 38 14 356 347 330 296
166 160 211 212 176 150 202 198 200 201 219 233 234 236 180 182 180 176 179 176 209 245 267 286 290 301 304 295 278 193 127 94 88 76 62 67 66 62 36 11 357 345 314 284
175 204 188 218 162 196 233 215 193 199 216 208 237 221 191 193 194 189 187 208 224 247 259 276 312 315 309 301 198 130 110 96 90 97 99 88 89 83 75 47 24 357 331 306
17 190 115 232 201 200 240 239 206 213 221 237 248 233 199 197 190 195 210 227 232 238 248 298 328 357 4 96 106 87 78 67 72 85 90 83 79 86 84 85 83 77 52 25
140 130 143 245 136 135 264 229 213 209 213 216 218 230 168 192 202 207 211 214 228 237 299 319 105 96 96 93 105 105 95 72 68 64 57 60 66 87 89 96 91 83 89 106
162 202 196 199 144 221 242 245 217 221 221 209 223 178 183 191 202 213 210 216 220 208 182 137 126 139 135 131 105 119 96 72 62 62 62 52 71 86 97 120 113 107 115 129
269 182 179 190 203 285 280 214 186 182 238 209 207 174 194 153 131 241 215 207 187 165 151 172 172 141 130 104 78 76 81 97 92 78 64 98 136 134 136 107 111 118 130 123
132 288 215 148 221 228 244 187 155 137 258 196 208 178 164 147 192 215 186 183 170 170 179 172 149 132 146 132 109 105 98 104 107 166 166 153 158 139 139 124 111 84 92 116
162 175 210 202 227 254 236 153 144 162 230 234 194 175 164 184 199 197 160 172 177 188 184 172 166 173 179 158 147 162 148 143 146 147 125 130 201 156 129 111 84 117 117 118
175 161 174 160 196 248 156 147 189 182 191 184 161 167 176 180 168 156 155 172 181 178 172 188 187 193 174 172 164 162 170 147 147 134 94 103 52 150 126 118 119 120 125 129
183 187 173 190 208 79 180 15 104 132 120 199 163 169 181 167 188 182 189 173 191 194 197 199 209 191 171 188 184 169 174 160 149 146 160 138 134 131 142 142 140 135 143 147
158 144 113 157 228 303 187 64 84 111 94 263 232 190 175 185 180 158 179 195 203 208 221 208 214 219 208 196 187 172 159 163 156 165 165 163 163 160 162 150 143 151 159 157
149 147 141 116 254 346 337 84 113 90 126 153 145 189 197 159 191 214 219 211 218 213 215 204 213 225 222 186 181 176 160 165 172 166 169 180 179 178 162 140 144 160 165 183
194 156 180 187 152 90 110 166 180 183 184 170 146 135 125 158 194 221 243 238 235 230 210 213 222 224 197 178 166 170 173 188 174 170 179 183 177 170 154 145 125 101 144 154